Weather History for Toledo Metcalf, OH

Change the Weather History Date:

Tuesday, May 14, 2013

  Actual Average (KTOL) Record (KTOL)
Temperature  
Mean Temperature 60 °F 59 °F  
Max Temperature 79 °F 70 °F 92 °F (1991)
Min Temperature 43 °F 48 °F 29 °F (1973)
Degree Days  
Heating Degree Days 4 7  
Month to date heating degree days 122  
Since 1 July heating degree days 6024  
Cooling Degree Days 0 1  
Month to date cooling degree days 11  
Year to date cooling degree days 19  
Growing Degree Days 10 (Base 50)    
Moisture  
Dew Point 42 °F    
Average Humidity 50    
Maximum Humidity 68    
Minimum Humidity 33    
Precipitation  
Precipitation 0.00 in 0.12 in 0.63 in (1981)
Month to date precipitation 1.54  
Year to date precipitation 11.33  
Snow  
Snow 0.00 in 0.00 in - ()
Month to date snowfall 0.1  
Since 1 July snowfall 37.6  
Snow Depth -    
Sea Level Pressure  
Sea Level Pressure 29.92 in    
Wind  
Wind Speed 10 mph (South)    
Max Wind Speed 21 mph    
Max Gust Speed 30 mph    
Visibility 10 miles    
Events Rain    
T = Trace of Precipitation, MM = Missing Value Source: NWS Daily Summary

Daily Weather History Graph

Daily Weather History Graph

Search for Another Location

Airport:

Trip Planner

Search our weather history database for the weather conditions in past years. The results will help you decide how hot, cold, wet, or windy it might be!

Date:

Astronomy

May. 14, 2013 Rise Set
Actual Time 6:15 AM EDT 8:45 PM EDT
Civil Twilight 5:43 AM EDT 9:17 PM EDT
Nautical Twilight 5:04 AM EDT 9:56 PM EDT
Astronomical Twilight 4:20 AM EDT 10:41 PM EDT
Moon 9:54 AM EDT (5/14) No Moon Set
Length of Visible Light 15h 33m
Length of Day
14h 30m
Waxing Crescent, 19% of the Moon is Illuminated
May 14
Waxing Crescent
May 18
First Quarter
May 25
Full
May 31
Last Quarter
Jun 8
New

Hourly Weather History & Observations

Time (EDT) Temp. Windchill Dew Point Humidity Pressure Visibility Wind Dir Wind Speed Gust Speed Precip Events Conditions
12:53 AM 43.0 °F 37.7 °F 28.9 °F 58% 30.14 in 10.0 mi SSE 9.2 mph - N/A   Clear
1:53 AM 43.0 °F 38.8 °F 30.0 °F 60% 30.12 in 10.0 mi SSE 6.9 mph - N/A   Clear
2:53 AM 43.0 °F 40.3 °F 32.0 °F 65% 30.11 in 10.0 mi South 4.6 mph - N/A   Scattered Clouds
3:53 AM 44.1 °F 41.5 °F 32.0 °F 63% 30.09 in 10.0 mi South 4.6 mph - N/A   Partly Cloudy
4:53 AM 46.0 °F 43.9 °F 33.1 °F 61% 30.09 in 10.0 mi South 4.6 mph - N/A   Overcast
5:53 AM 46.0 °F 42.5 °F 34.0 °F 63% 30.09 in 10.0 mi South 6.9 mph - N/A   Overcast
6:53 AM 46.9 °F - 33.1 °F 59% 30.07 in 10.0 mi SE 10.4 mph - N/A   Overcast
7:53 AM 48.0 °F - 34.0 °F 58% 30.06 in 10.0 mi SSE 9.2 mph - N/A   Overcast
8:53 AM 51.1 °F - 36.0 °F 56% 30.02 in 10.0 mi South 15.0 mph - 0.00 in   Partly Cloudy
9:53 AM 55.9 °F - 37.0 °F 49% 30.00 in 10.0 mi South 15.0 mph - N/A   Scattered Clouds
10:53 AM 61.0 °F - 37.9 °F 42% 29.96 in 10.0 mi SSW 18.4 mph 23.0 mph N/A   Mostly Cloudy
11:53 AM 68.0 °F - 37.9 °F 33% 29.92 in 10.0 mi SSW 19.6 mph 25.3 mph N/A   Clear
12:53 PM 70.0 °F - 41.0 °F 35% 29.88 in 10.0 mi SSW 20.7 mph 29.9 mph N/A   Partly Cloudy
1:53 PM 71.1 °F - 43.0 °F 36% 29.88 in 10.0 mi SSW 12.7 mph 23.0 mph N/A   Mostly Cloudy
2:53 PM 75.0 °F - 45.0 °F 34% 29.83 in 10.0 mi SSW 16.1 mph 25.3 mph N/A   Clear
3:53 PM 77.0 °F - 46.9 °F 34% 29.80 in 10.0 mi SSW 18.4 mph 26.5 mph N/A   Clear
4:53 PM 78.1 °F - 48.0 °F 35% 29.79 in 10.0 mi SSW 17.3 mph 24.2 mph N/A   Partly Cloudy
5:53 PM 78.1 °F - 50.0 °F 37% 29.79 in 10.0 mi SSW 12.7 mph 24.2 mph N/A   Partly Cloudy
6:53 PM 78.1 °F - 52.0 °F 40% 29.77 in 10.0 mi WSW 6.9 mph - N/A   Clear
7:53 PM 78.1 °F - 54.0 °F 43% 29.74 in 10.0 mi SSW 3.5 mph - N/A   Clear
8:53 PM 73.0 °F - 53.1 °F 49% 29.75 in 10.0 mi SSE 3.5 mph - N/A   Clear
9:53 PM 69.1 °F - 54.0 °F 58% 29.75 in 10.0 mi South 4.6 mph - N/A   Scattered Clouds
10:53 PM 71.1 °F - 55.0 °F 57% 29.73 in 10.0 mi SSW 6.9 mph - N/A   Partly Cloudy
11:53 PM 68.0 °F - 57.0 °F 68% 29.73 in 10.0 mi SSW 12.7 mph - 0.00 in Rain Light Rain